Orbital Elements at Epoch 2459200.5 (2020-Dec-17.0) TDB
Reference: JPL 18 (heliocentric ecliptic J2000)
Element | Value | Uncertainty (1-sigma) | Units |
e | .02659011267202962 | 4.3557e-08 | |
a | 2.719570755553582 | 1.8454e-08 | au |
q | 2.647257062743856 | 1.1909e-07 | au |
i | 6.463343223973873 | 5.7226e-06 | deg |
node | 326.6489276169283 | 3.9229e-05 | deg |
peri | 250.8572423157314 | 0.00011062 | deg |
M | .3221342288530007 | 0.00010357 | deg |
tp | 2459199.034170885013 (2020-Dec-15.53417089) | 0.00047129 | TDB |
period | 1638.132288128335 4.48 | 1.6674e-05 4.565e-08 | d yr |
n | .2197624713272221 | 2.2368e-09 | deg/d |
Q | 2.791884448363308 | 1.8945e-08 | au |
|
| | Orbit Determination Parameters
Additional Information
|